Home   Weather   Ilioupoli   Past weeks

Flag for Greece Past Weather in Ilioupoli, Greece — Yesterday and Last 2 Weeks

Now
45 °F

Passing clouds.


Feels Like: 40 °F
Forecast: 43 / 48 °F
Wind: 8 mph from North

Location: Eleftherios Venizelos International Airport

Current Time: Jan 20, 2017 at 1:52:23 am

Latest Report: Jan 20, 2017 at 1:20 am


Visibility: N/A

Pressure: 30.36 "Hg

Humidity: 81%

Dew Point: 39 °F

Location of IlioupoliLocation

Past Weather in Ilioupoli — Graph

°F

Ilioupoli Temperature Yesterday

Maximum temperature yesterday: 57 °F (at 12:50 pm)
Minimum temperature yesterday: 46 °F (at 7:20 am)
Average temperature yesterday: 50 °F

High & Low Weather Summary for the Past Weeks

 TemperatureHumidityPressure
High63 °F (Jan 5, 2:50 pm)100% (Jan 17, 4:50 am)30.33 "Hg (Jan 17, 4:50 am)
Low25 °F (Jan 9, 2:20 am)24% (Jan 15, 12:20 pm)29.53 "Hg (Jan 6, 3:50 am)
Average45 °F70%29.92 "Hg
* Reported Jan 5 12:20 am — Jan 20 12:20 am, Ilioupoli, Weather by CustomWeather, © 2017

Note: Actual official high and low records may vary slightly from our data, if they occured in-between our weather recording intervals... More about our weather records

Advertising

Ilioupoli Weather History for the Previous 24 Hours

Scroll right to see more
 ConditionsComfort  
Time TempWeatherWind HumidityBarometerVisibility
12:20 am
Fri, Jan 20
45 °FPassing clouds.10 mph81%30.33 "HgN/A
11:50 pm
Thu, Jan 19
46 °FPassing clouds.14 mph76%30.33 "HgN/A
11:20 pm46 °FPassing clouds.16 mph76%30.33 "HgN/A
10:50 pm46 °FPassing clouds.14 mph76%30.33 "HgN/A
10:20 pm46 °FPassing clouds.14 mph76%30.33 "HgN/A
9:50 pm46 °FPassing clouds.14 mph71%30.30 "HgN/A
9:20 pm46 °FPassing clouds.12 mph71%30.30 "HgN/A
8:50 pm46 °FPassing clouds.13 mph76%30.30 "HgN/A
8:20 pm46 °FPassing clouds.10 mph71%30.27 "HgN/A
7:50 pm48 °FPassing clouds.7 mph66%30.27 "HgN/A
7:20 pm48 °FPassing clouds.10 mph66%30.27 "HgN/A
6:50 pm50 °FPassing clouds.8 mph62%30.27 "HgN/A
6:20 pm50 °FPassing clouds.9 mph58%30.24 "HgN/A
5:50 pm50 °FPassing clouds.13 mph58%30.21 "HgN/A
5:20 pm52 °FPassing clouds.5 mph58%30.21 "HgN/A
4:50 pm52 °FPassing clouds.8 mph62%30.21 "HgN/A
4:20 pm54 °FScattered clouds.10 mph58%30.18 "HgN/A
3:50 pm54 °FScattered clouds.12 mph58%30.18 "HgN/A
3:20 pm54 °FScattered clouds.3 mph67%30.18 "HgN/A
2:50 pm54 °FPartly sunny.8 mph72%30.18 "HgN/A
2:20 pm55 °FPartly sunny.7 mph67%30.15 "HgN/A
1:50 pm55 °FPartly sunny.7 mph67%30.18 "HgN/A
1:20 pm55 °FPartly sunny.9 mph67%30.18 "HgN/A
12:50 pm57 °FScattered clouds.6 mph67%30.18 "HgN/A
12:20 pm55 °FPartly sunny.7 mph72%30.18 "HgN/A
11:50 am55 °FScattered clouds.6 mph72%30.18 "HgN/A
11:20 am55 °FScattered clouds.3 mph77%30.18 "HgN/A
10:50 am54 °FScattered clouds.2 mph82%30.18 "HgN/A
10:20 am54 °FScattered clouds.1 mph82%30.18 "HgN/A
9:50 am52 °FScattered clouds.5 mph82%30.18 "HgN/A
9:20 am50 °FPartly sunny.1 mph88%30.15 "HgN/A
8:50 am48 °FScattered clouds.5 mph87%30.15 "HgN/A
8:20 am46 °FScattered clouds.1 mph87%30.12 "HgN/A
7:50 am48 °FScattered clouds.No wind87%30.12 "HgN/A
7:20 am46 °FPassing clouds.2 mph93%30.12 "HgN/A
6:50 am48 °FPassing clouds.2 mph100%30.12 "HgN/A
6:20 am48 °FPassing clouds.6 mph100%30.09 "HgN/A
5:50 am48 °FPassing clouds.2 mph100%30.09 "HgN/A
5:20 am48 °FPassing clouds.1 mph100%30.09 "HgN/A
4:50 am48 °FPassing clouds.1 mph100%30.12 "HgN/A
4:20 am48 °FPassing clouds.2 mph100%30.09 "HgN/A
3:50 am50 °FPartly cloudy.No wind94%30.09 "HgN/A
3:20 am48 °FPassing clouds.No wind100%30.09 "HgN/A
2:50 am48 °FLight rain. Partly cloudy.5 mph100%30.09 "HgN/A
2:20 am50 °FRain. Mostly cloudy.5 mph94%30.09 "HgN/A
1:50 am50 °FLight rain. Mostly cloudy.No wind88%30.09 "HgN/A
1:20 am50 °FMostly cloudy.1 mph88%30.09 "HgN/A
Weather by CustomWeather, © 2017

See weather overviewHow to use our weather pages